Hourly Weather Otmianowo

Today, 29 July, Thursday

Time Temperature Precipitation Wind Pressure Humidity
00:00 +19°C° 0 mm 2 mps 747 mmHg 88%
01:00 +18°C° 0 mm 3 mps 747 mmHg 90%
02:00 +18°C° 0 mm 3 mps 747 mmHg 91%
03:00 +17°C° 0 mm 3 mps 747 mmHg 93%
04:00 +16°C° 0 mm 3 mps 747 mmHg 94%
05:00 +18°C° 0 mm 3 mps 747 mmHg 88%
06:00 +19°C° 0 mm 4 mps 747 mmHg 83%
07:00 +20°C° 0 mm 4 mps 747 mmHg 78%
08:00 +22°C° 0 mm 5 mps 747 mmHg 70%
09:00 +23°C° 0 mm 5 mps 747 mmHg 63%
10:00 +26°C° 0 mm 6 mps 747 mmHg 56%
11:00 +26°C° 0 mm 6 mps 747 mmHg 54%
12:00 +25°C° 0 mm 5 mps 747 mmHg 52%
13:00 +25°C° 0 mm 5 mps 747 mmHg 50%
14:00 +26°C° 0 mm 5 mps 747 mmHg 46%
15:00 +27°C° 0 mm 6 mps 747 mmHg 42%
16:00 +28°C° 0 mm 6 mps 747 mmHg 38%
17:00 +26°C° 0 mm 6 mps 747 mmHg 42%
18:00 +25°C° 0 mm 5 mps 747 mmHg 46%
19:00 +22°C° 0 mm 5 mps 747 mmHg 51%
20:00 +21°C° 0 mm 4 mps 747 mmHg 53%
21:00 +20°C° 0 mm 3 mps 747 mmHg 56%
22:00 +19°C° 0 mm 3 mps 747 mmHg 58%
23:00 +18°C° 0 mm 3 mps 747 mmHg 60%

Tomorrow, 30 July, Friday

Time Temperature Precipitation Wind Pressure Humidity
00:00 +18°C° 0 mm 3 mps 747 mmHg 62%
01:00 +17°C° 0 mm 3 mps 747 mmHg 64%
02:00 +17°C° 0 mm 3 mps 747 mmHg 65%
03:00 +16°C° 0 mm 3 mps 747 mmHg 67%
04:00 +16°C° 0 mm 3 mps 747 mmHg 68%
05:00 +17°C° 0 mm 3 mps 747 mmHg 65%
06:00 +18°C° 0 mm 4 mps 747 mmHg 63%
07:00 +19°C° 0 mm 4 mps 747 mmHg 60%
08:00 +21°C° 0 mm 5 mps 747 mmHg 55%
09:00 +22°C° 0 mm 5 mps 747 mmHg 50%
10:00 +25°C° 0 mm 5 mps 747 mmHg 46%
11:00 +26°C° 0 mm 6 mps 746 mmHg 44%
12:00 +26°C° 0 mm 6 mps 746 mmHg 42%
13:00 +27°C° 0 mm 6 mps 746 mmHg 40%
14:00 +27°C° 0 mm 6 mps 745 mmHg 39%
15:00 +28°C° 0 mm 6 mps 745 mmHg 39%
16:00 +28°C° 0 mm 6 mps 745 mmHg 39%
17:00 +26°C° 0 mm 5 mps 745 mmHg 44%
18:00 +25°C° 0 mm 4 mps 745 mmHg 50%
19:00 +23°C° 0 mm 2 mps 745 mmHg 55%
20:00 +21°C° 0 mm 2 mps 745 mmHg 57%
21:00 +21°C° 0 mm 1 mps 745 mmHg 58%
22:00 +20°C° 0 mm 1 mps 745 mmHg 59%
23:00 +20°C° 0 mm 1 mps 745 mmHg 60%

Day after tomorrow, 31 July, Saturday

Time Temperature Precipitation Wind Pressure Humidity
00:00 +19°C° 0 mm 1 mps 745 mmHg 60%
01:00 +19°C° 0 mm 1 mps 745 mmHg 61%
02:00 +18°C° 0 mm 2 mps 744 mmHg 62%
03:00 +18°C° 0 mm 2 mps 744 mmHg 63%
04:00 +18°C° 0 mm 2 mps 744 mmHg 64%
05:00 +19°C° 0 mm 2 mps 744 mmHg 64%
06:00 +20°C° 0 mm 3 mps 744 mmHg 64%
07:00 +21°C° 0 mm 3 mps 744 mmHg 64%
08:00 +22°C° 0.2 mm 3 mps 744 mmHg 64%
09:00 +23°C° 0.2 mm 4 mps 744 mmHg 63%
10:00 +25°C° 0.2 mm 4 mps 744 mmHg 62%
11:00 +26°C° 0 mm 5 mps 744 mmHg 56%
12:00 +27°C° 0 mm 6 mps 744 mmHg 50%
13:00 +28°C° 0 mm 6 mps 744 mmHg 44%
14:00 +28°C° 0 mm 6 mps 744 mmHg 41%
15:00 +28°C° 0 mm 6 mps 743 mmHg 38%
16:00 +28°C° 0 mm 6 mps 743 mmHg 35%
17:00 +27°C° 0 mm 6 mps 743 mmHg 39%
18:00 +25°C° 0 mm 5 mps 744 mmHg 43%
19:00 +23°C° 0 mm 5 mps 744 mmHg 47%
20:00 +21°C° 0 mm 4 mps 744 mmHg 50%
21:00 +20°C° 0 mm 4 mps 745 mmHg 53%
22:00 +18°C° 0 mm 3 mps 745 mmHg 57%
23:00 +17°C° 0 mm 3 mps 745 mmHg 59%

1 August, Sunday

Time Temperature Precipitation Wind Pressure Humidity
00:00 +17°C° 0 mm 3 mps 745 mmHg 62%
01:00 +16°C° 0 mm 3 mps 745 mmHg 64%
02:00 +16°C° 0 mm 3 mps 745 mmHg 67%
03:00 +14°C° 0 mm 3 mps 746 mmHg 69%
04:00 +14°C° 0 mm 3 mps 746 mmHg 72%
05:00 +16°C° 0 mm 3 mps 746 mmHg 69%
06:00 +17°C° 0 mm 3 mps 746 mmHg 67%
07:00 +19°C° 0 mm 3 mps 746 mmHg 65%
08:00 +20°C° 0 mm 3 mps 746 mmHg 62%
09:00 +21°C° 0 mm 3 mps 746 mmHg 58%
10:00 +22°C° 0 mm 3 mps 746 mmHg 55%
11:00 +22°C° 0 mm 3 mps 746 mmHg 53%
12:00 +24°C° 0 mm 3 mps 746 mmHg 51%
13:00 +24°C° 0 mm 3 mps 746 mmHg 50%
14:00 +21°C° 0.3 mm 3 mps 745 mmHg 60%
15:00 +20°C° 0.3 mm 3 mps 745 mmHg 71%
16:00 +18°C° 0.3 mm 3 mps 745 mmHg 82%
17:00 +18°C° 0.1 mm 2 mps 745 mmHg 81%
18:00 +17°C° 0.1 mm 2 mps 745 mmHg 81%
19:00 +18°C° 0.1 mm 1 mps 745 mmHg 80%
20:00 +17°C° 0.1 mm 2 mps 745 mmHg 82%
21:00 +17°C° 0.1 mm 2 mps 745 mmHg 84%
22:00 +16°C° 0.1 mm 3 mps 745 mmHg 86%
23:00 +16°C° 0.2 mm 3 mps 745 mmHg 88%

2 August, Monday

Time Temperature Precipitation Wind Pressure Humidity
00:00 +16°C° 0.2 mm 3 mps 744 mmHg 90%
01:00 +16°C° 0.2 mm 3 mps 744 mmHg 91%
02:00 +16°C° 0.4 mm 3 mps 744 mmHg 92%
03:00 +16°C° 0.4 mm 3 mps 744 mmHg 93%
04:00 +14°C° 0.4 mm 3 mps 744 mmHg 93%
05:00 +16°C° 0.3 mm 3 mps 744 mmHg 91%
06:00 +17°C° 0.3 mm 4 mps 744 mmHg 88%
07:00 +17°C° 0.3 mm 4 mps 744 mmHg 85%
08:00 +19°C° 0.2 mm 5 mps 744 mmHg 78%
09:00 +20°C° 0.2 mm 6 mps 745 mmHg 71%
10:00 +21°C° 0.2 mm 7 mps 745 mmHg 63%
11:00 +22°C° 0.3 mm 7 mps 745 mmHg 59%
12:00 +22°C° 0.3 mm 7 mps 745 mmHg 54%
13:00 +23°C° 0.3 mm 7 mps 745 mmHg 49%
14:00 +23°C° 0 mm 7 mps 745 mmHg 45%
15:00 +23°C° 0 mm 7 mps 745 mmHg 40%
16:00 +24°C° 0 mm 7 mps 746 mmHg 36%
17:00 +22°C° 0 mm 6 mps 746 mmHg 40%
18:00 +21°C° 0 mm 5 mps 746 mmHg 43%
19:00 +20°C° 0 mm 4 mps 746 mmHg 47%
20:00 +18°C° 0 mm 3 mps 746 mmHg 51%
21:00 +17°C° 0 mm 3 mps 747 mmHg 55%
22:00 +16°C° 0 mm 2 mps 747 mmHg 59%
23:00 +16°C° 0 mm 3 mps 747 mmHg 62%

3 August, Tuesday

Time Temperature Precipitation Wind Pressure Humidity
00:00 +14°C° 0 mm 3 mps 747 mmHg 65%
01:00 +13°C° 0 mm 3 mps 748 mmHg 68%
02:00 +13°C° 0 mm 3 mps 748 mmHg 70%
03:00 +12°C° 0 mm 3 mps 748 mmHg 73%
04:00 +12°C° 0 mm 3 mps 748 mmHg 75%
05:00 +13°C° 0 mm 3 mps 748 mmHg 71%
06:00 +15°C° 0 mm 4 mps 749 mmHg 68%
07:00 +17°C° 0 mm 4 mps 749 mmHg 64%
08:00 +18°C° 0 mm 4 mps 749 mmHg 58%
09:00 +20°C° 0 mm 4 mps 749 mmHg 52%
10:00 +21°C° 0 mm 4 mps 749 mmHg 46%
11:00 +22°C° 0 mm 4 mps 749 mmHg 43%
12:00 +23°C° 0 mm 4 mps 749 mmHg 41%
13:00 +25°C° 0 mm 4 mps 748 mmHg 38%
14:00 +25°C° 0 mm 4 mps 748 mmHg 40%
15:00 +25°C° 0 mm 3 mps 748 mmHg 41%
16:00 +25°C° 0 mm 3 mps 747 mmHg 43%
17:00 +22°C° 1.5 mm 3 mps 747 mmHg 59%
18:00 +19°C° 1.5 mm 2 mps 747 mmHg 75%
19:00 +17°C° 1.5 mm 2 mps 747 mmHg 91%
20:00 +16°C° 0.1 mm 3 mps 748 mmHg 91%
21:00 +15°C° 0.1 mm 4 mps 748 mmHg 90%
22:00 +14°C° 0.1 mm 5 mps 748 mmHg 90%
23:00 +14°C° 0 mm 5 mps 749 mmHg 91%
Show more